Location: Sungai Jaoh
(2.9167°N, 113.9167°E)
Time: 07:23:44
(UTC+00:00)

IRIDIUM 33 DEB - Visible Passes

Search period start: 28 October 2021 00:00
Search period end: 07 November 2021 00:00
Orbit: 750 x 764 km, 86.4° (Epoch: 27 October)

Date Brightness Start Highest point End Pass type
(mag) Time Alt. Az. Time Alt. Az. Time Alt. Az.
28 Oct ? 11:03:52 10° SSE 11:08:14 30° E 11:10:30 21° NE visible
28 Oct ? 12:45:38 10° WSW 12:48:15 14° W 12:50:39 11° WNW visible
29 Oct ? 10:27:42 10° E 10:28:46 11° E 10:29:51 10° ENE visible
29 Oct ? 12:04:04 10° SSW 12:08:44 38° W 12:12:50 13° NNW visible
30 Oct ? 11:24:10 10° S 11:29:14 78° E 11:34:17 10° N visible
31 Oct ? 10:45:26 10° SSE 10:49:45 28° E 10:54:03 10° NNE visible
31 Oct ? 12:26:56 10° WSW 12:29:45 15° W 12:32:33 10° NW visible
01 Nov ? 11:45:30 10° SSW 11:50:14 40° W 11:54:57 10° NNW visible
02 Nov ? 11:05:40 10° S 11:10:43 74° E 11:15:47 10° N visible
03 Nov ? 10:26:59 10° SE 10:31:14 27° E 10:35:27 10° NNE visible
03 Nov ? 12:08:15 10° SW 12:11:14 16° W 12:14:13 10° NW visible
04 Nov ? 11:26:56 10° SSW 11:31:43 42° W 11:36:29 10° NNW visible
05 Nov ? 10:47:09 10° S 10:52:12 71° E 10:57:14 10° N visible
06 Nov ? 11:49:34 10° SW 11:52:42 17° W 11:55:51 10° NW visible
